Location: Newark
(41.6500°N, 71.4833°W)
Time: 14:08:25
(UTC+00:00)

A-11 Canister half - Pass Details

Date: 22 January 2020
Orbit: 1517 x 1683 km, 47.2° (Epoch: 23 February)

Event Time Altitude Azimuth Distance (km) Brightness Sun altitude
Rises 05:45:20 0° 243° (WSW) 4,719 - -65.9°
Reaches altitude 10° 05:48:24 10° 244° (WSW) 3,720 - -65.6°
Maximum altitude 05:57:48 88° 333° (NNW) 1,527 - -64.7°
Drops below altitude 10° 06:07:06 10° 65° (ENE) 3,682 - -63.6°
Exits shadow 06:07:41 - 66° (ENE) 3,874 11.4 -63.5°
Sets 06:10:08 0° 66° (ENE) 4,670 11.9 -63.2°
